Location: Cronhütte
(48.9135°N, 9.6869°E)
Time: 09:52:51
(UTC+00:00)

Cosmos 1745 Rocket - Pass Details

Date: 23 May 2024
Orbit: 953 x 996 km, 83.0° (Epoch: 15 June)

Event Time Altitude Azimuth Distance (km) Brightness Sun altitude
Exits shadow 00:48:37 23° 174° (S) 1,914 5.0 -17.6°
Maximum altitude 00:52:35 71° 95° (E) 1,029 4.1 -17.3°
Drops below altitude 10° 00:58:51 10° 13° (NNE) 2,750 7.6 -16.9°
Sets 01:01:24 0° 11° (NNE) 3,709 8.6 -16.7°
